sat.trackr.live / text

‹ back to catalog

ORESAT0.5

NORAD 60525 · 2024-149BK

PAYLOAD ACTIVE UNKNOWN

§ Identity

Operator
Country
US
Launch date
2024-08-16
Launch site
AFWTR
Launch vehicle
Mass (kg)
RCS (m²)

External: N2YO · Heavens-Above · Gunter

§ Orbital elements

Epoch: 2026-09-22T22:18:21.359232Z

Period
92.99 min
Inclination
97.3683°
Eccentricity
0.0003672
Mean motion
15.48588569 rev/d
Perigee alt
418.4 km
Apogee alt
423.4 km
Semi-major
6,799.0 km
B*
3.2348e-4
RAAN
353.6505°
Arg perigee
279.5018°
Mean anomaly
80.5817°
Rev number
11,758

§ Raw data

ORESAT0.51 60525U 24149BK  26265.92941388  .00017178  00000+0  32348-3 0  99992 60525  97.3683 353.6505 0003672 279.5018  80.5817 15.48588569117583

JSON: /api/v1/satellites/60525 · /tle

For live sub-satellite position, see the globe view (requires WebGL).

§ Visibility from observer

Set your observer location to see the next 7 days of passes ≥ 10°. The values pass through the URL so the page stays shareable.

No JS? Fill the form by hand. The geolocation button needs JavaScript.

§ Radio — SatNOGS DB

ModeDescriptionDownlinkUplink
GMSK 9k6 TLM 436.500 MHz
DBPSK spread spectrum DBPSK 1 Mbit/s for bulk data (inactive) 2.422 GHz

2 transmitters · refreshed weekly from db.satnogs.org